This is the latest recevied weather packets stored in our database for station/object VK4TOM-13. If no packets are shown the sender has not sent any weather packets the latest 10 day(s).
| Time | Temp. | Humidity | Pressure | Rain* | Wind** | Luminosity | Snow |
|---|---|---|---|---|---|---|---|
| 1788493219 | 34.44° C | 36% | 1018.2 hPa | 0 mm | - | - | - |
| 1788492618 | 33.89° C | 39% | 1018.4 hPa | 0 mm | - | - | - |
| 1788492017 | 33.89° C | 41% | 1018.7 hPa | 0 mm | - | - | - |
| 1788491416 | 33.33° C | 49% | 1018.9 hPa | 0 mm | - | - | - |
| 1788490214 | 32.78° C | 63% | 1019.4 hPa | 0 mm | - | - | - |
| 1788489613 | 32.22° C | 69% | 1019.5 hPa | 0 mm | - | - | - |
| 1788489012 | 32.22° C | 70% | 1019.8 hPa | 0 mm | - | - | - |
| 1788481799 | 26.67° C | 70% | 1022.6 hPa | 0 mm | - | - | - |
| 1788480597 | 25.56° C | 70% | 1022.9 hPa | 0 mm | - | - | - |
| 1788479395 | 25° C | 70% | 1023.1 hPa | 0 mm | - | - | - |
| 1788478193 | 23.89° C | 70% | 1023.4 hPa | 0 mm | - | - | - |
| 1788477592 | 23.33° C | 70% | 1023.5 hPa | 0 mm | - | - | - |
| 1788476991 | 23.33° C | 70% | 1023.5 hPa | 0 mm | - | - | - |
| 1788476389 | 22.22° C | 70% | 1023.5 hPa | 0 mm | - | - | - |
| 1788475788 | 21.67° C | 70% | 1023.4 hPa | 0 mm | - | - | - |
| 1788475187 | 21.11° C | 70% | 1023.4 hPa | 0 mm | - | - | - |
| 1788474586 | 20.56° C | 70% | 1023.4 hPa | 0 mm | - | - | - |
| 1788473985 | 19.44° C | 70% | 1023.4 hPa | 0 mm | - | - | - |
| 1788473384 | 18.33° C | 70% | 1023.4 hPa | 0 mm | - | - | - |
| 1788472783 | 17.22° C | 70% | 1023.2 hPa | 0 mm | - | - | - |
| 1788472182 | 16.11° C | 70% | 1023.3 hPa | 0 mm | - | - | - |
| 1788471581 | 15.56° C | 70% | 1023.3 hPa | 0 mm | - | - | - |
| 1788470980 | 15° C | 70% | 1023.2 hPa | 0 mm | - | - | - |
| 1788470379 | 14.44° C | 70% | 1022.9 hPa | 0 mm | - | - | - |
| 1788469778 | 13.89° C | 70% | 1022.7 hPa | 0 mm | - | - | - |
* Rain since midnight (hover to see other rain measurements)
** Current wind speed in m/s (hover to see current wind gust speed)